RH
5 4 4 4 4 5 6 7 8 7 11 18 40 81 95 100 93 100 100 100 99 100 100 84 83 67 88 100 100 93 44 34 41 44 44 42 50 60 76 87 66 54 39
6 4 5 4 4 3 4 6 7 8 7 13 24 64 90 100 100 100 100 100 100 100 100 100 100 98 64 86 100 100 95 33 33 38 38 42 52 59 53 56 54 45 38
8 7 6 5 4 4 3 5 5 6 7 14 33 41 83 100 100 100 100 100 99 100 100 100 100 100 99 67 100 100 100 91 31 27 29 33 44 55 57 49 46 49 41
11 10 7 6 4 4 3 4 6 6 7 10 39 51 77 97 100 98 100 100 100 100 100 100 100 100 100 57 98 92 100 100 48 28 22 26 35 55 54 50 43 52 54
20 13 10 7 5 4 4 3 4 5 6 15 31 54 79 93 100 100 100 100 100 92 97 100 100 100 100 64 100 84 100 100 89 34 28 23 24 38 61 65 48 46 51
25 16 14 9 6 5 4 4 4 5 8 12 22 61 66 86 94 100 100 100 100 97 100 100 100 100 100 84 81 84 74 100 100 68 39 24 31 35 49 60 54 48 59
24 23 15 12 8 6 5 5 5 6 6 12 39 51 56 79 87 100 100 100 100 99 100 100 100 79 100 100 100 82 80 84 100 91 62 53 36 39 49 46 48 63 58
24 25 19 14 12 9 7 6 6 7 7 29 36 53 70 83 72 100 100 100 100 100 100 100 99 100 93 100 100 100 94 89 100 100 100 100 73 76 53 44 42 50 65
24 19 20 17 13 13 9 9 7 8 8 21 15 48 83 98 100 100 100 100 100 100 100 91 82 100 94 96 100 100 100 89 100 85 98 100 100 83 84 65 60 48 50
22 20 18 15 15 13 12 9 10 8 7 14 14 66 69 100 100 100 100 100 100 100 96 83 98 100 100 100 100 96 100 100 93 99 88 77 100 100 100 100 100 82 53
17 21 17 15 12 14 12 12 10 10 10 10 24 80 75 94 100 100 100 100 100 100 99 89 100 100 100 100 100 100 100 100 74 82 77 94 100 100 83 100 90 74 68
14 18 18 16 13 13 14 12 12 10 9 10 34 33 61 82 96 100 100 100 100 100 98 100 100 100 100 96 83 100 100 93 100 87 79 84 95 65 46 99 85 78 89
13 14 17 15 15 14 14 13 12 11 10 10 15 36 67 88 94 100 100 100 100 100 96 100 100 100 100 93 90 100 100 100 100 100 85 48 77 99 86 50 39 73 63
11 12 13 15 14 15 14 13 11 12 10 12 49 88 85 87 58 97 100 100 100 100 100 100 96 100 97 100 100 100 100 100 100 100 74 58 61 83 100 49 51 38 50
8 9 11 12 13 13 13 13 12 10 11 12 53 81 64 86 55 92 100 100 100 100 98 99 86 100 100 98 100 100 100 100 100 99 86 54 70 72 87 70 38 26 39
10 8 8 9 12 12 12 12 12 10 11 28 48 61 52 62 63 91 100 100 100 100 100 100 84 100 93 100 100 100 100 97 100 91 77 96 100 97 90 100 94 42 24
8 10 8 7 8 12 12 11 11 11 10 30 55 53 62 81 67 73 77 100 100 100 78 100 84 98 100 100 100 100 100 83 90 100 94 100 91 100 99 84 82 62 58
7 8 9 8 7 8 11 13 12 11 10 11 36 46 52 70 61 86 84 97 100 100 79 99 99 83 100 100 100 100 100 99 84 91 77 56 82 85 94 100 100 93 69
7 7 7 8 8 7 7 10 13 12 12 11 9 20 37 48 53 57 69 77 86 89 84 91 100 80 98 100 100 100 100 100 80 85 61 63 71 87 97 100 100 100 97
7 7 7 7 8 8 6 7 9 11 12 12 10 9 12 30 31 33 34 40 36 49 60 79 83 98 87 95 100 97 100 100 81 77 78 60 68 66 79 100 100 95 85
6 6 6 7 7 7 8 7 6 7 9 11 13 10 10 10 15 24 23 23 26 38 48 62 66 86 93 100 96 98 89 100 100 91 92 100 96 73 90 95 100 100 90
6 6 7 6 6 6 7 8 7 6 6 8 9 10 11 10 15 15 16 22 31 35 50 63 66 72 82 93 86 85 84 81 85 77 60 56 79 97 97 88 94 100 99
5 6 6 7 6 6 6 6 7 7 7 6 6 8 9 10 9 12 13 19 27 29 35 45 66 66 86 81 71 83 72 54 58 60 62 56 46 45 65 76 93 99 78
5 5 6 7 6 6 6 6 6 6 7 7 6 6 7 8 10 10 11 10 10 13 17 33 36 40 64 81 91 82 91 90 76 69 62 52 45 50 61 60 78 84 98
5 5 5 6 7 7 6 6 6 6 6 6 6 7 6 5 5 7 10 11 15 18 14 16 27 44 42 61 64 73 81 79 69 65 74 74 82 70 73 89 96 100 100
5 5 5 5 6 7 7 6 6 6 6 6 6 6 6 6 6 6 5 6 8 10 21 38 49 62 56 51 44 46 50 52 61 56 50 47 50 55 59 69 78 84 93
Wind_Speed
49 47 45 48 51 58 67 82 97 104 112 107 104 100 93 89 104 96 77 74 78 70 64 55 40 39 36 41 37 25 26 34 34 35 38 44 44 43 41 42 43 42 40
42 41 39 40 45 52 62 75 90 102 107 117 109 104 100 93 94 88 87 76 74 74 71 66 54 52 40 38 40 25 21 32 36 35 36 41 48 49 47 42 40 40 35
35 35 32 36 38 46 56 70 78 96 107 122 116 108 104 104 102 87 91 89 87 86 81 71 56 57 52 54 41 32 30 29 37 36 37 36 46 49 46 45 41 42 41
30 29 28 32 32 40 49 63 76 84 99 126 123 116 109 101 97 92 98 94 83 80 73 73 71 68 60 56 52 38 37 33 36 34 33 30 40 48 44 43 44 45 46
27 24 26 28 31 38 46 59 72 78 96 129 124 122 105 101 102 103 104 95 85 71 68 71 72 68 68 57 60 46 41 38 34 33 32 32 33 38 41 46 46 46 42
24 22 24 26 31 36 45 54 64 71 92 122 126 126 118 111 112 112 112 100 97 91 87 82 73 71 69 68 61 53 45 45 40 41 37 34 34 38 43 44 45 45 45
25 22 22 24 30 34 43 51 60 68 95 112 135 135 134 116 115 109 100 95 95 97 94 100 88 79 76 71 74 68 57 49 48 45 36 35 38 41 45 46 45 47 48
26 22 22 24 28 33 41 51 58 62 83 130 127 117 117 115 118 109 105 99 95 97 83 89 97 84 70 71 67 70 74 58 54 53 48 46 42 42 46 46 47 48 51
29 25 25 24 31 36 42 50 62 76 91 137 118 123 123 119 115 108 108 100 95 90 92 96 97 87 83 76 68 75 83 75 61 56 52 52 48 49 47 43 44 44 49
30 29 28 29 32 40 46 54 60 74 102 138 120 125 126 119 123 115 113 101 106 103 94 99 99 88 88 91 87 75 87 83 80 69 61 58 56 51 53 45 45 46 45
30 32 32 33 35 40 48 54 63 69 90 130 127 126 128 128 122 115 111 110 103 102 101 96 96 92 94 93 94 86 78 81 86 76 72 64 58 53 48 44 41 40 40
34 34 36 36 38 41 47 55 62 71 88 124 132 126 129 134 125 119 116 114 109 108 107 100 91 96 98 98 99 96 86 84 83 84 84 70 63 59 54 48 51 44 45
33 37 38 40 41 43 48 55 63 70 86 112 118 123 131 132 129 123 123 118 111 108 111 107 100 95 98 103 100 95 100 91 90 85 84 77 76 67 65 59 60 51 49
29 35 41 43 45 47 50 55 63 70 91 103 122 129 136 137 134 130 127 124 112 113 117 122 117 110 103 101 101 103 100 93 92 87 84 82 85 79 75 68 57 58 54
26 31 39 44 48 51 55 58 63 76 95 108 125 136 138 134 138 133 126 126 124 121 117 115 114 116 113 108 108 104 103 100 98 87 88 87 86 83 80 77 67 64 66
25 29 34 42 49 53 57 62 68 78 99 119 132 136 138 139 140 138 136 127 131 125 120 117 117 107 109 111 111 111 109 106 105 100 98 95 94 89 86 78 79 76 74
27 27 32 36 45 53 58 64 69 80 95 120 133 137 140 138 144 146 140 135 133 130 128 122 123 116 111 114 113 114 111 112 109 110 108 104 99 99 94 92 90 83 82
28 28 29 35 39 48 58 65 70 78 90 110 131 138 140 141 148 144 142 138 136 134 128 128 127 123 120 119 119 116 112 111 110 110 107 108 102 99 103 101 96 91 88
27 29 30 32 37 44 51 62 72 77 87 100 115 131 141 146 150 148 144 146 141 137 134 132 132 130 125 128 120 116 116 112 115 114 110 110 104 98 99 102 103 100 99
28 27 29 32 35 40 46 54 65 74 83 92 105 119 136 149 155 152 145 143 138 139 142 139 140 134 131 127 125 125 123 119 118 117 113 115 111 107 102 103 102 99 98
28 27 27 29 32 37 42 48 55 66 76 86 94 108 120 134 146 154 150 148 146 150 146 143 143 143 135 130 130 132 128 124 120 118 117 117 117 116 114 108 107 108 104
30 27 27 28 30 33 38 44 49 56 62 75 84 92 106 118 128 139 143 151 152 150 148 148 149 148 146 140 135 133 137 133 133 130 125 123 118 117 117 119 116 112 112
33 28 27 27 29 31 33 38 44 49 56 62 73 82 90 98 112 119 124 144 151 154 150 155 154 151 151 150 147 140 139 138 138 138 137 137 134 130 129 127 127 130 128
36 31 27 27 28 30 31 33 37 43 49 54 61 69 79 90 99 111 133 134 130 150 154 155 151 149 154 150 147 141 143 139 139 138 140 142 145 145 138 137 133 131 137
38 33 30 27 28 30 31 32 34 38 41 46 52 57 64 72 80 91 106 112 132 144 149 145 148 154 150 143 143 145 142 141 144 143 141 142 138 141 138 130 127 127 129
41 36 32 29 28 29 30 32 33 35 38 41 45 49 53 58 64 71 78 92 105 111 136 149 154 150 150 151 150 151 147 148 144 146 147 143 142 142 139 134 137 137 132
Wind_Direction
269 267 262 253 242 232 225 221 220 214 202 211 216 212 206 210 209 214 209 217 225 227 230 235 232 239 239 249 248 237 236 233 240 249 249 242 235 234 229 224 227 229 234
272 270 264 254 241 231 223 219 216 213 207 203 210 210 210 205 202 210 210 218 212 222 230 235 237 241 242 243 246 238 249 233 236 247 253 250 238 232 235 235 232 234 235
277 274 267 258 243 231 223 218 216 211 209 201 200 208 209 205 209 211 207 211 217 223 224 231 235 237 235 242 239 240 246 248 239 244 254 252 245 240 238 239 236 232 235
277 275 265 256 242 232 221 214 215 208 204 200 194 198 200 207 207 201 208 213 216 220 224 223 230 235 235 235 237 239 241 251 248 240 254 258 250 239 240 243 243 236 235
277 274 265 247 239 224 217 215 214 209 201 197 198 195 200 203 205 201 206 208 211 213 213 216 230 227 232 232 238 241 237 245 253 248 250 254 259 252 242 242 242 239 241
272 273 263 249 235 223 215 214 213 207 204 196 199 193 191 201 200 203 209 212 214 215 216 220 222 224 227 234 234 234 237 240 247 250 245 248 251 251 248 248 249 252 244
264 264 256 247 237 223 216 214 209 204 194 195 194 191 192 195 201 207 209 209 215 220 224 223 223 224 226 236 233 236 236 243 240 245 248 246 248 247 246 245 247 251 249
257 254 253 239 232 224 215 209 203 200 194 187 196 197 196 194 197 202 204 209 211 218 222 219 220 221 217 225 229 234 234 240 239 244 250 250 248 248 248 244 245 245 247
258 248 243 234 225 221 214 211 205 194 191 191 197 195 194 194 197 199 205 207 212 212 211 210 215 217 220 222 227 226 232 237 239 237 244 253 254 252 254 259 254 251 244
258 250 243 230 226 223 217 211 210 204 194 192 195 196 197 196 196 200 206 206 209 211 216 215 222 217 222 225 222 228 224 238 241 244 240 249 252 252 256 258 260 258 247
251 248 243 239 225 224 220 216 213 210 204 195 193 195 199 200 199 200 204 209 214 212 213 218 216 217 224 223 224 228 229 235 236 241 240 244 243 244 248 255 256 255 253
255 242 242 242 234 225 222 218 216 211 207 198 195 199 203 201 201 201 205 209 211 216 216 217 216 223 227 228 227 227 230 236 241 239 237 239 240 240 242 247 256 258 270
262 244 239 240 238 232 223 218 215 213 206 200 200 201 203 204 204 203 208 209 213 221 220 218 222 225 227 227 226 231 230 236 240 236 233 238 239 242 247 248 251 252 256
261 251 240 236 236 232 228 221 216 211 202 201 198 201 205 206 206 206 210 212 215 220 223 222 223 229 227 231 232 232 234 236 233 233 236 239 244 245 245 242 249 259 255
265 256 245 238 235 232 227 224 217 209 204 204 202 205 206 207 207 209 211 213 217 221 222 226 227 230 232 233 234 234 234 235 232 235 238 240 242 246 242 243 242 252 256
278 262 252 241 236 234 230 224 219 214 207 205 203 207 208 210 212 214 215 215 219 221 223 227 228 229 231 232 233 233 235 236 234 237 238 240 244 246 242 244 244 250 249
285 271 258 250 238 233 233 228 223 217 213 207 208 209 211 212 213 214 215 216 221 223 225 228 230 230 231 234 233 235 234 235 237 239 239 243 245 246 246 246 251 246 248
288 275 264 255 247 236 231 232 228 223 218 213 212 211 215 215 216 217 217 221 225 226 227 228 230 230 232 232 234 235 235 236 237 240 243 245 244 248 248 249 250 249 251
290 279 268 258 252 245 238 232 231 228 225 221 218 217 217 216 219 220 221 223 228 229 229 230 232 233 232 235 232 234 236 237 240 245 244 247 247 246 248 248 254 256 257
298 282 271 262 255 249 244 239 234 232 231 229 226 223 222 220 222 223 226 228 230 231 230 234 235 236 236 235 235 236 236 239 240 243 247 249 248 251 252 254 255 254 253
305 291 277 265 257 252 248 245 241 237 234 232 232 231 230 226 226 227 228 226 230 232 233 236 236 237 239 239 238 237 238 238 239 241 243 247 250 252 255 256 253 254 252
316 300 286 273 263 254 249 247 246 243 241 238 234 233 233 233 232 230 229 227 229 231 233 235 236 239 239 241 243 241 240 243 244 245 245 246 250 251 253 256 255 253 254
324 311 297 284 271 262 254 247 245 245 244 242 240 239 236 235 232 231 233 234 233 235 236 238 239 239 241 241 242 244 245 245 247 248 250 252 253 253 257 258 257 255 255
329 319 307 293 281 271 263 256 250 246 245 244 242 240 240 239 238 237 235 236 238 238 240 241 242 245 245 243 245 246 246 248 248 251 251 254 254 256 259 259 260 257 254
333 326 316 303 290 279 272 265 258 253 248 244 243 243 242 241 240 241 239 241 242 241 242 240 243 243 245 248 248 247 248 249 248 252 253 254 254 255 257 258 259 258 258
337 329 321 310 299 287 279 272 266 260 256 251 247 244 243 244 243 242 242 242 242 243 243 244 243 245 248 250 250 251 252 251 250 252 254 255 256 255 256 258 258 259 260